Location: La Pernelle
(49.6188°N, 1.2999°W)
Time: 17:08:36
(UTC+00:00)

SL-16 R/B - Pass Details

Date: 27 October 2021
Orbit: 842 x 846 km, 71.0° (Epoch: 28 November)

Event Time Altitude Azimuth Distance (km) Brightness Sun altitude
Rises 20:40:15 0° 281° (W) 3,406 6.2 -37.0°
Reaches altitude 10° 20:44:23 10° 310° (NW) 2,475 5.3 -37.5°
Maximum altitude 20:46:45 13° 334° (NNW) 2,299 4.9 -37.9°
Drops below altitude 10° 20:49:06 10° 359° (N) 2,479 4.9 -38.2°
Enters shadow 20:49:40 - 4° (N) 2,570 4.9 -38.3°
